Wind_Speed
10 10 10 10 9 8 8 8 7 7 8 9 10 12 13 14 15 16 17 18 19 19 19 19 19 19 19 17 15 12 10 9 8 9 10 12 15 19 23 26 26 27 28
10 10 10 9 9 9 9 8 8 8 8 9 10 11 12 14 15 15 16 17 19 19 19 19 19 19 19 17 14 12 10 8 8 8 9 11 13 17 21 24 25 26 27
9 10 10 10 10 9 9 9 9 8 8 9 10 11 12 13 14 15 16 17 19 19 19 19 19 19 18 16 14 11 9 8 6 6 7 9 11 14 19 22 24 24 27
9 10 10 10 9 9 9 9 9 9 9 9 10 10 11 12 13 14 16 17 18 19 19 19 18 18 17 16 14 11 9 8 6 4 5 7 9 11 15 19 22 23 25
9 9 9 10 9 9 10 10 10 10 9 9 10 10 11 12 13 14 15 17 18 18 19 19 18 17 17 16 14 11 10 8 6 4 4 6 8 10 13 16 19 21 23
10 9 9 9 10 10 10 10 11 10 10 10 10 11 11 12 13 13 15 16 17 18 18 18 17 17 16 15 14 11 9 8 6 4 3 4 7 9 11 14 17 19 22
10 10 9 9 10 10 10 11 11 11 11 11 11 11 11 12 13 13 14 15 16 17 17 17 16 16 15 15 14 12 10 8 7 5 2 2 5 8 10 13 15 17 19
10 11 11 10 11 11 11 11 12 12 12 12 12 12 12 12 13 13 14 15 15 16 16 16 15 15 14 14 13 12 11 9 6 5 3 1 4 6 9 11 14 16 18
11 11 11 11 12 12 12 12 13 13 13 13 13 13 13 13 13 14 14 14 15 15 15 15 15 14 14 13 12 12 10 8 7 6 4 2 3 5 7 10 12 14 16
11 11 12 12 12 13 13 14 14 14 14 14 14 14 14 14 14 14 14 14 14 15 15 14 14 14 13 13 12 11 10 9 8 6 4 2 3 5 7 8 11 13 15
12 13 13 13 13 13 14 14 15 15 16 16 15 15 15 15 15 15 15 15 15 14 14 14 13 13 12 12 12 11 10 9 8 7 5 3 3 5 7 8 11 12 14
13 13 14 14 15 15 15 15 15 16 17 17 17 17 17 17 17 16 16 16 16 15 14 13 13 12 12 12 11 10 10 9 8 7 5 4 3 4 5 7 9 11 13
14 14 15 15 16 16 16 16 16 17 17 18 18 19 19 18 18 18 17 17 17 16 15 14 13 13 12 11 11 10 10 9 8 7 6 4 3 3 5 7 9 10 12
15 15 16 16 17 17 18 18 18 18 19 19 19 20 20 20 20 20 19 19 18 18 16 15 15 14 13 12 11 10 10 9 9 8 7 5 4 4 4 6 7 9 11
16 16 17 17 18 19 20 20 20 20 21 21 21 22 22 22 22 22 21 21 20 20 18 17 16 15 14 13 12 11 10 9 9 8 7 6 6 6 5 6 7 8 9
18 18 18 19 20 20 21 22 22 23 23 23 23 23 23 23 24 24 23 23 23 22 21 19 18 17 16 15 14 13 12 10 10 9 8 7 7 6 7 7 8 8 9
21 21 21 21 22 22 23 23 24 25 25 26 26 26 26 26 25 25 25 25 25 24 23 22 21 19 18 17 16 15 14 12 11 10 10 9 8 7 7 8 8 9 9
25 25 26 26 27 27 26 27 27 27 27 28 29 29 29 28 28 28 27 27 27 27 26 25 24 22 21 19 18 17 16 15 13 12 11 10 10 9 9 9 9 10 10
28 29 30 30 31 31 31 31 31 31 31 31 31 32 32 32 32 31 31 30 30 29 29 28 27 25 24 22 20 19 18 17 16 15 13 12 12 11 11 11 11 10 10
32 33 34 34 35 35 35 35 35 35 35 35 35 35 35 35 35 35 34 34 33 32 31 30 29 28 27 26 23 22 20 19 18 17 16 15 14 13 13 12 12 12 12
36 37 37 38 39 39 40 40 40 40 39 39 39 39 39 38 38 37 37 37 36 35 34 33 32 31 30 29 27 25 23 22 21 20 18 17 17 16 15 14 14 14 14
39 40 41 42 42 43 44 44 44 44 44 44 43 43 42 41 41 40 40 40 39 38 37 36 35 34 33 32 30 29 26 25 23 22 21 20 19 18 17 17 16 16 15
44 44 45 45 46 47 48 48 48 49 48 48 47 46 45 45 44 43 43 42 42 41 40 39 37 36 35 35 33 32 30 28 27 25 24 23 22 21 20 19 19 18 18
48 48 49 50 51 51 52 52 51 51 51 51 50 49 48 48 47 46 46 46 45 44 43 41 40 38 38 37 36 34 33 31 30 28 27 25 24 23 22 21 21 20 20
52 53 54 55 55 56 56 56 56 55 55 54 53 52 52 51 51 50 49 49 48 47 45 44 43 41 39 39 38 37 36 34 32 31 30 28 27 26 25 24 23 22 21
57 57 58 58 59 60 60 60 60 59 58 57 56 55 54 53 53 53 52 51 50 50 48 47 46 44 42 41 41 40 39 37 35 34 32 30 29 28 27 26 25 24 23
Wind_Direction
276 276 275 275 272 270 270 274 282 294 304 315 323 332 338 341 343 344 345 344 345 345 345 346 343 342 341 339 333 325 312 296 279 264 246 237 229 221 217 214 213 213 212
275 274 275 274 273 273 274 277 282 294 303 312 320 329 336 339 342 344 345 345 345 346 347 347 347 345 343 343 339 334 323 306 286 266 247 237 228 221 218 216 215 213 211
278 276 274 275 276 275 274 277 283 293 301 311 318 325 332 336 340 343 345 345 346 347 348 348 349 349 348 348 346 342 337 324 302 273 246 238 226 221 219 220 216 213 212
279 277 277 279 280 279 277 277 282 290 300 309 314 321 328 333 338 342 344 345 347 348 349 350 351 352 355 356 354 350 347 341 323 291 251 236 229 221 217 216 214 213 212
282 280 279 282 282 281 279 277 280 286 294 302 309 316 322 328 335 339 342 345 347 349 350 351 353 355 357 359 360 355 354 352 342 315 265 240 228 217 214 211 209 211 212
283 282 284 284 283 282 280 279 280 284 290 295 302 309 317 323 329 335 339 342 345 348 350 352 354 357 359 1 3 1 358 357 353 339 290 245 227 215 213 210 208 210 211
289 287 289 288 285 284 283 281 280 283 287 292 297 303 310 318 323 329 334 339 342 345 347 351 353 356 359 1 4 4 3 358 356 353 333 248 217 218 212 207 209 209 209
299 293 291 291 291 289 286 283 282 283 285 289 294 298 304 311 316 322 329 335 339 342 344 348 351 353 356 359 2 5 5 2 359 356 345 266 215 216 208 207 208 209 211
305 299 297 296 294 293 289 285 283 282 284 287 290 294 299 304 309 315 321 328 333 337 341 345 347 350 353 355 358 360 3 5 6 3 347 296 225 215 208 211 211 212 214
310 304 302 301 297 294 291 288 285 282 283 285 287 289 294 298 302 307 313 319 324 330 336 339 342 347 351 353 356 358 0 1 356 351 341 310 242 224 221 218 218 216 216
309 306 304 304 301 297 294 290 287 284 283 283 284 285 288 292 296 301 305 309 315 321 328 333 337 341 345 349 352 354 357 357 356 353 344 316 260 238 234 230 224 221 219
311 306 305 304 303 301 298 294 290 287 285 283 282 283 284 286 290 293 298 301 305 310 316 322 326 332 337 341 344 347 350 354 356 354 347 328 295 252 239 233 228 225 222
313 310 307 305 303 301 299 297 293 290 287 285 283 282 282 283 285 287 290 294 297 302 305 310 314 319 324 329 333 336 340 345 348 349 345 337 312 279 254 242 238 233 230
311 310 308 306 304 301 299 298 295 292 290 288 286 284 283 282 282 283 284 286 289 293 297 300 303 306 310 315 318 322 325 329 336 339 339 333 315 293 274 258 250 244 238
307 307 305 304 302 300 299 298 297 295 292 290 287 286 284 282 281 280 280 280 282 285 288 291 294 297 299 302 305 307 311 313 318 323 322 317 305 291 279 271 264 257 249
304 303 302 301 300 298 297 296 295 294 293 290 288 286 285 283 281 279 278 277 277 278 281 283 286 289 291 293 294 295 297 300 303 305 305 303 298 290 279 274 271 268 260
303 303 301 299 298 296 295 294 292 291 290 289 287 285 284 282 280 278 276 275 274 274 275 276 278 281 283 285 286 287 287 287 290 293 293 291 286 283 279 275 272 272 269
302 302 300 299 297 296 294 293 291 290 288 287 285 284 282 281 279 278 276 273 272 272 272 273 273 275 277 278 279 281 280 278 279 282 284 282 280 279 274 273 272 271 269
300 299 299 297 296 294 293 292 290 289 288 286 284 282 281 279 277 276 274 272 270 269 269 269 270 271 272 273 273 274 275 274 273 273 275 276 274 273 272 270 270 269 267
299 299 298 297 295 293 291 290 290 288 287 286 284 281 279 277 275 274 272 271 269 267 266 266 266 267 268 269 269 269 269 269 269 269 269 270 271 269 268 268 267 267 266
298 298 296 295 294 293 291 289 288 287 286 285 283 281 278 276 273 271 270 269 268 266 265 264 264 264 265 265 265 265 265 265 265 265 265 266 267 266 265 265 265 265 265
298 296 295 295 294 293 292 290 288 287 286 284 282 280 278 275 272 270 268 267 266 265 264 262 262 262 262 262 262 263 262 261 261 262 262 263 264 264 264 263 263 263 262
297 296 294 294 293 293 292 290 288 287 286 284 282 280 277 274 271 269 267 265 265 264 263 261 260 259 259 259 259 259 259 259 259 259 260 261 261 262 263 262 262 262 262
297 296 295 295 294 293 292 290 288 286 284 283 281 279 276 273 271 268 266 264 263 262 261 260 259 258 257 257 257 256 256 257 257 257 257 258 259 260 260 260 261 261 262
297 296 295 295 294 293 293 291 289 286 284 282 280 277 275 273 270 267 265 263 261 260 259 258 258 256 255 254 254 254 253 254 254 254 255 256 257 257 258 258 259 260 261
297 296 296 295 294 293 293 291 289 287 285 283 281 278 275 272 268 265 263 261 259 257 256 256 255 254 253 252 252 251 251 251 252 252 253 254 255 255 256 257 258 259 260
Height
5855 5854 5853 5853 5853 5852 5852 5852 5851 5850 5849 5848 5846 5844 5842 5840 5837 5834 5830 5827 5823 5819 5815 5810 5806 5802 5798 5794 5791 5788 5786 5785 5785 5785 5786 5787 5790 5792 5796 5800 5805 5810 5815
5853 5852 5852 5851 5851 5850 5850 5850 5849 5848 5847 5846 5844 5842 5840 5838 5835 5832 5829 5825 5822 5818 5813 5809 5805 5801 5797 5793 5789 5787 5785 5783 5783 5783 5784 5785 5788 5789 5793 5797 5801 5806 5811
5851 5850 5850 5849 5849 5848 5848 5847 5847 5846 5845 5844 5842 5840 5838 5836 5834 5831 5828 5824 5821 5816 5812 5808 5804 5800 5796 5792 5788 5786 5783 5782 5781 5781 5782 5783 5784 5786 5790 5793 5797 5802 5807
5849 5848 5848 5847 5846 5846 5845 5845 5844 5844 5843 5841 5840 5839 5837 5835 5832 5830 5826 5823 5820 5816 5811 5807 5803 5799 5795 5791 5788 5785 5783 5781 5780 5780 5780 5781 5782 5784 5787 5791 5794 5799 5803
5847 5846 5846 5845 5844 5844 5843 5842 5842 5841 5841 5839 5838 5837 5835 5833 5831 5828 5825 5822 5819 5815 5811 5807 5803 5799 5795 5792 5788 5785 5783 5781 5780 5779 5779 5780 5781 5782 5785 5788 5792 5796 5800
5845 5844 5844 5843 5842 5841 5841 5840 5840 5839 5839 5838 5836 5835 5834 5832 5830 5827 5824 5821 5818 5814 5811 5807 5803 5799 5796 5792 5789 5786 5784 5782 5780 5779 5779 5779 5780 5781 5783 5786 5790 5793 5797
5843 5842 5842 5841 5840 5839 5839 5838 5837 5837 5836 5835 5834 5833 5832 5830 5828 5826 5823 5820 5817 5814 5810 5807 5803 5800 5796 5793 5790 5787 5784 5782 5781 5779 5779 5779 5779 5780 5782 5785 5788 5791 5795
5841 5840 5839 5839 5838 5837 5836 5836 5835 5835 5834 5833 5832 5831 5829 5828 5826 5824 5822 5819 5816 5813 5810 5806 5803 5800 5796 5793 5790 5788 5785 5783 5781 5780 5779 5779 5779 5780 5782 5784 5786 5789 5793
5839 5838 5837 5836 5835 5834 5834 5833 5832 5832 5831 5830 5829 5828 5827 5826 5824 5822 5820 5818 5815 5812 5809 5806 5803 5800 5796 5794 5791 5788 5786 5783 5782 5780 5779 5779 5779 5780 5781 5783 5785 5788 5791
5837 5836 5835 5833 5833 5832 5831 5830 5829 5829 5828 5827 5827 5826 5824 5823 5822 5820 5818 5816 5814 5811 5808 5805 5803 5800 5797 5794 5791 5788 5786 5784 5782 5780 5779 5779 5778 5779 5780 5781 5783 5786 5788
5835 5833 5832 5831 5830 5829 5828 5827 5826 5825 5825 5824 5823 5822 5821 5820 5819 5817 5816 5814 5812 5810 5807 5805 5802 5799 5796 5793 5791 5788 5786 5784 5782 5780 5779 5778 5778 5778 5779 5780 5781 5783 5786
5832 5831 5829 5828 5827 5826 5825 5824 5823 5822 5821 5820 5819 5818 5817 5816 5815 5814 5813 5811 5810 5808 5806 5803 5801 5798 5796 5793 5791 5788 5786 5784 5782 5780 5779 5778 5777 5777 5777 5778 5779 5781 5783
5830 5828 5827 5825 5824 5822 5821 5820 5819 5818 5817 5816 5815 5814 5813 5812 5811 5810 5809 5808 5807 5805 5803 5801 5799 5797 5795 5792 5790 5788 5786 5784 5782 5780 5778 5777 5776 5776 5776 5777 5777 5779 5780
5827 5825 5823 5822 5821 5819 5817 5816 5815 5814 5813 5812 5811 5810 5809 5808 5807 5806 5805 5804 5803 5802 5800 5799 5797 5795 5793 5791 5789 5786 5784 5782 5781 5779 5777 5776 5775 5775 5775 5775 5775 5776 5777
5823 5821 5820 5818 5817 5815 5814 5812 5810 5809 5808 5807 5806 5805 5804 5803 5802 5801 5800 5799 5799 5798 5796 5795 5793 5792 5790 5788 5787 5785 5783 5781 5779 5777 5776 5775 5773 5773 5773 5772 5772 5773 5773
5819 5818 5816 5814 5812 5811 5809 5807 5806 5804 5803 5802 5800 5799 5798 5797 5796 5795 5794 5794 5793 5792 5792 5791 5789 5788 5787 5785 5783 5782 5780 5779 5777 5775 5774 5772 5771 5771 5770 5770 5770 5770 5770
5814 5813 5811 5809 5807 5805 5804 5802 5800 5798 5797 5795 5794 5793 5792 5791 5790 5789 5788 5788 5787 5786 5786 5785 5784 5783 5782 5781 5780 5778 5777 5775 5774 5773 5771 5770 5769 5768 5768 5767 5767 5767 5767
5809 5807 5805 5803 5801 5799 5797 5796 5794 5792 5790 5789 5787 5786 5784 5784 5783 5782 5781 5780 5780 5779 5779 5779 5778 5778 5777 5776 5775 5774 5773 5772 5771 5769 5768 5767 5766 5765 5765 5764 5764 5764 5764
5802 5800 5798 5796 5794 5791 5790 5788 5786 5784 5782 5781 5779 5777 5776 5775 5774 5774 5773 5772 5772 5771 5771 5771 5771 5771 5771 5770 5769 5768 5768 5767 5766 5765 5764 5763 5763 5762 5762 5761 5761 5760 5760
5794 5791 5789 5786 5784 5782 5780 5778 5777 5775 5773 5771 5770 5768 5766 5766 5765 5764 5763 5763 5762 5762 5762 5763 5763 5763 5763 5763 5763 5762 5762 5761 5761 5760 5760 5759 5758 5758 5757 5757 5757 5756 5756
5785 5782 5779 5776 5774 5771 5769 5768 5766 5764 5762 5760 5759 5757 5755 5754 5753 5753 5752 5752 5752 5752 5753 5754 5754 5754 5755 5755 5755 5755 5755 5755 5755 5754 5754 5754 5753 5753 5753 5752 5752 5752 5752
5775 5772 5768 5766 5762 5759 5757 5755 5753 5751 5749 5748 5746 5744 5742 5741 5741 5740 5740 5740 5740 5741 5742 5743 5744 5745 5745 5746 5746 5747 5747 5748 5748 5748 5748 5748 5748 5747 5747 5747 5747 5747 5747
5763 5760 5756 5753 5750 5747 5743 5741 5738 5736 5734 5732 5731 5729 5728 5727 5726 5726 5727 5727 5727 5728 5729 5731 5732 5734 5735 5736 5736 5737 5738 5739 5740 5740 5740 5741 5741 5741 5741 5741 5741 5741 5741
5750 5746 5743 5740 5736 5732 5728 5725 5722 5719 5717 5716 5714 5712 5712 5711 5711 5711 5712 5712 5714 5715 5716 5718 5720 5722 5723 5724 5726 5727 5728 5729 5731 5731 5732 5733 5733 5734 5734 5734 5734 5734 5735
5736 5732 5728 5724 5720 5716 5712 5708 5704 5702 5699 5698 5696 5695 5694 5693 5693 5694 5695 5696 5698 5699 5702 5704 5706 5708 5711 5713 5714 5715 5717 5719 5720 5722 5723 5724 5725 5726 5726 5727 5727 5727 5728
5720 5716 5711 5707 5702 5698 5694 5689 5685 5682 5679 5678 5676 5675 5674 5673 5673 5674 5676 5678 5681 5683 5686 5689 5691 5694 5697 5699 5701 5703 5705 5707 5709 5711 5713 5715 5716 5717 5718 5719 5719 5720 5720